Temperature
20 20 21 21 22 21 20 18 18 18 18 18 18 18 18 19 19 19 18 18 18 18 18 18 18 18 18 17 17 17 17 16 16 16 16 15 15 15 15 14 14 14 14 14
20 21 21 21 21 21 21 20 19 19 18 18 18 18 18 18 18 18 18 18 18 18 18 18 18 18 17 17 17 17 16 16 16 15 15 15 15 15 14 14 14 14 14 14
18 19 21 20 21 21 20 20 19 18 18 17 17 17 18 18 18 18 18 18 18 18 18 18 18 17 17 17 17 16 16 16 15 15 15 15 15 14 14 14 14 14 13 13
17 19 19 19 20 21 20 20 19 19 18 18 18 18 19 19 18 18 18 18 18 18 18 18 17 17 17 17 16 16 16 16 15 15 15 15 14 14 14 14 13 13 13 13
16 17 18 20 20 20 19 19 18 18 18 18 18 18 17 18 19 18 18 18 18 18 18 17 17 17 17 16 16 16 16 15 15 15 15 14 14 14 13 13 13 13 13 13
15 17 18 19 20 21 19 18 18 18 17 17 17 15 15 18 18 18 18 18 17 17 17 17 17 16 16 16 16 15 15 15 15 14 14 14 14 13 13 13 13 13 13 12
15 17 17 18 19 20 18 18 18 18 18 18 17 17 18 18 18 18 17 17 17 17 17 16 16 16 16 16 15 15 15 15 14 14 14 13 13 13 13 12 12 12 12 12
14 16 17 18 19 18 18 19 19 18 18 18 18 18 17 17 17 17 17 16 16 16 16 16 16 15 15 15 15 15 14 14 14 14 13 13 13 13 12 12 12 12 12 12
15 16 17 18 19 20 20 19 19 19 18 18 18 17 17 17 17 16 16 16 16 16 16 15 15 15 15 14 14 14 14 14 14 13 13 13 12 12 12 12 12 12 11 11
15 16 17 18 19 19 20 19 19 19 18 18 18 17 17 16 16 16 16 15 15 15 15 15 14 14 14 14 14 14 13 13 13 13 12 12 12 12 11 11 11 11 11 11
14 16 17 17 18 19 19 19 18 18 18 18 17 17 16 16 16 16 15 15 15 15 14 14 14 14 13 13 13 13 13 13 12 12 12 12 11 11 11 11 11 11 11 11
14 16 15 17 18 18 18 18 18 17 17 17 17 17 16 16 15 15 15 15 14 14 14 14 13 13 13 13 12 12 12 12 12 12 11 11 11 11 11 11 11 10 10 10
18 18 18 18 18 18 18 17 17 17 17 16 16 16 16 15 15 14 14 14 14 13 13 13 13 12 12 12 12 12 11 11 11 11 11 11 10 10 10 11 10 10 10 10
18 18 17 17 17 17 17 17 16 16 16 16 15 15 15 15 14 14 14 13 13 13 13 12 12 12 12 11 11 11 11 11 10 10 10 10 10 10 10 10 10 10 10 10
17 17 17 16 16 16 16 16 16 15 15 15 15 14 14 14 14 13 13 13 13 12 12 12 12 11 11 11 11 11 10 10 10 10 10 9 9 9 9 9 9 9 9 9
16 16 16 16 16 15 15 15 15 15 14 14 14 14 14 13 13 13 13 12 12 12 11 11 11 11 11 10 10 10 10 10 9 9 9 9 9 9 9 9 9 9 9 9
15 15 15 15 15 15 15 14 14 14 14 14 13 13 13 13 12 12 12 12 12 11 11 11 11 10 10 10 10 9 9 9 9 9 9 9 9 8 8 8 8 8 8 8
15 15 15 15 14 14 14 14 14 13 13 13 13 13 12 12 12 12 12 11 11 11 11 10 10 10 9 9 9 9 9 9 8 8 8 8 8 8 8 8 8 8 8 8
14 14 14 14 14 14 13 13 13 13 13 12 12 12 12 12 11 11 11 11 10 10 10 10 10 9 9 9 9 8 8 8 8 8 8 8 7 7 7 7 7 7 7 7
13 13 13 13 13 13 13 13 12 12 12 12 12 11 11 11 11 11 10 10 10 10 10 9 9 9 9 8 8 8 8 8 7 7 7 7 7 7 7 7 7 7 7 7
13 13 13 12 12 12 12 12 12 12 11 11 11 11 11 10 10 10 10 10 10 9 9 9 9 9 8 8 8 8 8 7 7 7 7 7 7 7 7 7 7 7 7 7
12 12 12 12 12 11 11 11 11 11 11 11 10 10 10 10 10 10 9 9 9 9 9 9 8 8 8 8 8 7 7 7 7 7 6 6 6 6 6 6 6 6 6 6
11 11 11 11 11 11 11 11 10 10 10 10 10 10 10 9 9 9 9 9 9 8 8 8 8 8 7 7 7 7 7 7 6 6 6 6 6 6 6 6 6 6 6 6
11 10 10 10 10 10 10 10 10 10 10 9 9 9 9 9 9 9 8 8 8 8 8 8 7 7 7 7 7 6 6 6 6 6 6 6 6 5 5 5 5 5 5 5
10 10 10 10 10 9 9 9 9 9 9 9 9 9 8 8 8 8 8 8 8 8 7 7 7 7 6 6 6 6 6 6 5 5 5 5 5 5 5 5 5 5 5 5
9 9 9 9 9 9 9 9 9 9 8 8 8 8 8 8 8 8 7 7 7 7 7 7 6 6 6 6 5 5 5 5 5 5 5 5 5 4 4 4 4 4 4 4
8 8 8 8 8 8 8 8 8 8 8 8 8 8 7 7 7 7 7 7 6 6 6 6 6 6 5 5 5 5 5 4 4 4 4 4 4 4 4 4 4 4 4 4
Wind_Speed
4 5 4 4 5 6 5 7 7 7 9 9 10 10 9 8 8 8 6 6 5 5 3 3 3 2 2 2 2 3 4 3 2 1 1 1 0 0 0 1 1 1 1 2
3 2 1 2 5 6 5 5 6 7 5 5 6 6 7 7 9 8 7 6 5 5 4 4 4 3 2 2 2 3 3 2 1 1 1 1 0 1 0 1 2 2 2 2
2 4 3 2 5 6 5 5 9 8 7 7 7 8 9 8 8 8 7 5 5 5 4 4 4 4 4 3 3 3 2 2 1 1 0 1 1 1 1 1 1 2 2 2
1 3 2 6 4 5 6 4 5 7 8 11 10 8 6 7 9 7 6 5 4 4 3 3 3 3 3 3 3 3 2 1 1 1 0 0 1 1 2 1 1 2 2 2
3 2 4 4 2 4 6 1 3 9 10 9 10 8 4 2 6 7 6 5 4 4 4 3 3 4 4 4 3 3 1 1 1 1 1 0 1 2 2 1 2 2 2 2
4 4 5 6 5 2 7 1 3 8 12 11 9 5 4 4 5 6 5 4 4 4 4 4 2 4 5 4 3 1 1 1 1 1 1 1 2 2 2 1 2 2 2 2
4 4 6 6 4 4 6 7 5 8 11 11 7 7 7 7 6 6 5 5 5 6 5 3 3 5 5 3 1 2 1 0 0 1 1 2 1 1 1 2 2 2 3 3
5 4 7 4 3 6 6 4 7 7 9 8 8 8 9 8 7 6 5 5 5 5 4 3 3 5 4 1 2 1 1 0 1 1 2 1 0 1 1 1 2 3 3 4
7 6 4 2 4 4 6 7 6 6 7 10 10 9 8 7 7 6 5 4 4 5 4 2 2 4 3 1 1 0 1 1 1 2 2 1 1 1 1 1 2 3 3 4
2 2 0 2 4 5 6 7 7 8 9 10 10 9 8 7 6 5 4 4 4 5 4 2 1 2 2 1 1 2 0 1 1 2 2 2 2 2 2 2 3 3 3 4
2 1 3 3 3 6 7 8 9 8 8 9 10 9 8 6 5 5 4 3 4 4 3 2 1 1 1 1 1 1 1 1 2 2 2 2 2 3 4 4 5 5 5 5
6 7 6 4 4 6 8 8 9 9 7 7 8 8 7 6 5 5 4 4 3 3 2 1 1 0 0 0 1 1 1 2 2 2 2 2 2 4 5 6 8 9 8 7
5 5 5 4 4 5 7 7 7 8 8 7 5 6 7 5 4 4 4 4 4 4 3 2 1 1 1 1 1 1 1 2 2 2 2 3 3 3 5 7 8 8 9 9
5 6 5 4 5 5 6 7 7 7 6 7 6 6 6 5 5 5 4 4 4 4 3 2 2 2 2 1 0 0 1 2 2 2 3 3 3 4 4 4 5 6 7 9
3 5 6 6 6 6 6 7 8 6 5 4 5 5 6 5 5 5 4 3 3 3 2 2 2 3 2 1 1 1 2 2 2 2 3 3 3 4 4 5 5 5 5 6
3 5 7 7 7 6 6 7 7 5 5 4 4 4 5 5 4 3 3 3 4 4 4 3 4 4 3 2 2 2 2 5 4 3 3 3 3 4 4 5 5 5 5 5
7 6 6 7 6 5 6 6 7 6 5 5 5 5 5 4 3 2 2 3 5 5 5 5 5 4 3 3 3 3 3 4 6 4 3 4 4 5 5 5 6 6 6 7
8 8 9 9 8 6 5 5 5 6 5 5 6 5 5 4 4 4 3 2 2 3 4 5 5 4 4 4 3 3 3 4 4 4 4 5 5 5 5 6 6 7 6 7
6 6 6 7 7 7 6 6 5 5 5 6 6 5 4 4 4 4 3 3 3 4 6 5 6 4 4 5 4 3 3 4 5 5 5 7 6 5 6 6 7 7 7 6
6 6 6 5 5 6 6 5 5 5 4 5 5 4 3 3 4 4 3 4 5 6 6 6 5 5 5 6 6 4 4 5 6 6 6 6 6 7 7 7 7 7 7 7
6 6 6 5 4 4 5 5 5 5 4 4 5 5 5 5 4 4 4 4 6 6 6 7 5 5 5 6 6 4 5 6 6 6 7 7 7 7 8 8 8 8 8 8
4 5 5 5 5 3 3 4 5 5 4 4 4 4 4 4 4 4 5 6 6 7 4 4 4 7 7 7 4 5 6 6 6 6 7 7 7 8 8 9 8 8 8 8
3 3 4 5 5 4 3 3 4 4 4 4 4 4 5 5 4 4 5 5 4 6 4 4 7 9 10 5 4 5 6 7 7 7 7 8 8 8 9 9 9 9 8 8
3 3 3 3 3 3 3 3 3 3 4 4 4 5 4 4 4 4 5 6 6 6 4 6 9 10 8 4 4 5 6 7 7 8 8 8 8 8 8 9 9 9 9 10
2 2 2 2 3 3 4 3 2 2 2 2 3 4 4 4 4 4 4 4 6 5 4 6 9 9 5 4 5 6 7 7 8 8 8 8 8 8 8 8 9 9 9 9
2 2 2 2 3 3 2 2 2 2 2 3 3 3 3 3 3 3 3 4 5 5 4 4 5 5 4 5 6 7 7 8 9 8 8 8 9 9 8 9 10 9 9 9
1 1 1 0 1 2 2 2 3 3 4 4 4 4 4 3 3 4 4 4 4 4 4 4 4 4 5 5 6 7 7 7 7 8 8 8 8 8 9 10 9 8 8 8
Wind_Direction
236 245 203 189 181 162 155 168 166 186 175 190 178 165 161 150 139 134 135 140 146 147 153 150 144 147 155 166 157 140 127 131 161 168 121 119 101 280 343 346 322 303 317 316
325 302 162 181 182 169 168 160 150 145 184 194 162 140 141 144 140 142 148 152 149 145 145 150 157 160 156 154 157 136 136 159 176 132 84 61 330 312 341 314 318 347 337 318
287 310 49 283 225 182 167 168 155 170 190 148 137 150 159 153 146 150 156 154 153 158 162 167 171 165 165 165 145 128 141 156 163 152 128 315 354 11 327 294 310 330 322 325
143 55 202 246 272 163 147 169 169 153 155 155 153 152 144 145 146 147 151 150 156 161 160 163 157 148 139 124 119 123 128 148 161 145 177 332 12 340 316 301 296 292 298 297
124 178 260 288 275 158 137 158 180 149 143 136 124 91 65 135 142 146 151 153 153 154 148 133 132 133 116 113 112 112 130 204 220 186 204 300 303 288 282 297 299 293 298 291
135 168 222 240 267 180 112 166 244 151 149 146 126 129 207 190 138 130 127 129 127 117 104 109 123 120 110 112 108 133 216 239 237 196 202 240 255 265 279 294 291 300 303 291
157 200 256 256 265 117 140 213 206 164 155 152 157 172 168 145 129 127 124 117 115 109 106 117 122 111 109 112 177 223 215 190 20 234 228 234 248 275 301 311 324 323 307 302
152 183 245 257 131 165 194 162 152 152 152 141 130 124 129 131 127 124 115 107 111 109 106 109 114 111 108 153 251 241 150 106 319 297 276 274 239 282 303 308 316 310 307 307
179 204 246 236 175 162 140 131 138 143 141 131 128 132 133 132 131 131 126 122 115 117 106 89 106 120 129 224 268 81 76 297 289 306 306 276 226 244 287 288 285 290 288 286
133 256 298 95 103 102 116 123 130 131 132 129 133 138 137 139 137 134 130 129 121 113 110 101 88 104 149 189 114 91 73 294 296 306 307 305 276 242 240 252 263 274 277 276
131 188 85 53 115 118 105 106 110 113 121 133 134 139 144 146 146 144 136 133 129 133 142 159 143 93 80 93 88 70 6 315 307 296 281 289 287 268 254 247 240 247 253 253
198 203 167 193 185 137 123 125 128 120 111 123 134 140 139 145 151 146 142 135 132 137 146 161 141 110 326 336 109 108 4 319 307 300 295 286 290 307 299 284 282 272 266 261
183 176 161 159 149 133 133 137 135 130 133 132 128 135 137 140 147 144 143 145 155 166 169 167 156 182 285 300 110 125 229 276 290 293 292 286 281 283 299 311 309 296 287 278
148 128 128 144 147 133 126 125 120 114 122 131 133 130 134 134 137 147 167 180 173 165 168 170 168 229 252 256 132 270 269 284 293 276 274 277 277 274 272 282 299 304 299 288
157 148 157 148 133 127 124 120 117 119 122 123 130 133 139 147 160 177 186 177 158 159 179 185 203 246 255 229 211 263 273 275 274 277 279 279 285 286 281 279 280 287 297 301
147 126 132 135 141 142 136 136 139 151 153 149 144 148 153 157 165 171 179 169 165 189 207 209 225 239 240 219 229 256 268 289 295 282 280 284 285 289 288 283 281 281 281 283
149 157 154 154 157 156 157 158 161 166 164 163 167 159 145 137 140 165 208 206 194 203 210 214 227 234 229 219 222 246 262 281 295 291 273 271 274 275 277 277 276 274 274 275
172 176 172 168 167 166 168 163 161 162 166 171 158 146 147 157 181 207 219 215 212 237 240 232 228 230 234 235 234 241 254 264 266 266 268 268 270 269 269 271 274 275 277 280
162 162 163 163 163 162 164 166 166 165 163 156 153 164 177 189 197 207 202 191 210 239 250 242 242 235 237 246 254 237 249 261 266 268 268 272 275 270 268 269 271 274 274 272
149 148 147 150 153 156 161 163 160 161 165 160 159 167 187 209 209 209 208 220 229 231 236 242 238 235 236 242 256 240 248 257 263 268 270 268 268 270 270 269 270 272 273 268
144 142 143 145 149 151 157 159 161 173 181 171 173 188 205 218 216 209 210 243 259 248 241 246 240 236 239 248 259 246 250 257 259 262 265 266 268 269 269 269 270 271 271 270
146 149 154 155 153 161 172 169 170 177 182 186 190 195 203 222 231 233 231 232 246 249 241 234 236 248 257 264 247 249 254 257 259 260 261 262 263 265 267 267 268 269 268 265
151 160 163 166 170 178 181 179 181 182 189 198 200 204 212 222 219 219 252 256 246 251 247 238 252 264 273 267 253 255 260 261 261 261 261 261 260 261 264 265 265 265 265 264
133 147 169 171 153 154 187 222 212 204 205 210 215 215 214 224 245 241 237 256 260 260 251 257 268 279 285 267 260 262 263 263 263 264 265 264 262 262 263 264 265 265 264 264
148 147 145 151 168 197 211 215 210 216 215 230 242 240 231 218 225 245 246 246 260 269 264 276 287 293 288 267 264 265 264 264 267 270 265 267 266 264 263 262 264 266 265 263
167 183 201 203 206 213 209 193 202 218 215 234 252 251 249 245 236 234 238 244 251 269 269 266 270 275 270 270 271 271 268 274 278 276 271 269 267 265 266 265 264 265 266 264
190 182 179 234 257 215 200 200 215 232 227 224 239 246 245 240 233 232 238 245 252 260 266 267 265 265 269 273 276 276 273 273 273 273 273 270 267 266 266 266 266 266 265 264
Height
1494 1489 1489 1489 1490 1491 1497 1503 1511 1510 1508 1505 1503 1503 1505 1507 1510 1512 1514 1516 1518 1519 1521 1523 1524 1525 1526 1527 1527 1527 1527 1527 1527 1527 1526 1526 1525 1524 1523 1523 1521 1520 1519 1518
1494 1488 1487 1489 1488 1490 1492 1495 1500 1502 1505 1499 1501 1503 1505 1508 1509 1512 1514 1516 1518 1519 1520 1521 1523 1524 1525 1525 1526 1526 1526 1526 1526 1525 1525 1524 1523 1522 1522 1521 1520 1519 1517 1516
1504 1494 1491 1499 1490 1489 1490 1490 1494 1501 1501 1499 1502 1503 1505 1507 1509 1511 1513 1515 1517 1518 1519 1521 1522 1523 1524 1524 1525 1525 1525 1524 1524 1523 1523 1522 1521 1520 1519 1518 1517 1516 1515 1514
1505 1502 1511 1497 1482 1481 1486 1489 1488 1490 1493 1495 1498 1501 1504 1506 1508 1510 1513 1514 1516 1517 1519 1520 1521 1522 1523 1523 1523 1523 1523 1523 1522 1521 1521 1520 1519 1518 1517 1516 1515 1514 1513 1512
1509 1510 1504 1491 1483 1482 1487 1492 1488 1489 1492 1496 1499 1502 1507 1508 1508 1510 1512 1513 1515 1517 1518 1519 1520 1520 1521 1521 1521 1521 1521 1521 1520 1519 1519 1518 1517 1516 1515 1514 1513 1512 1511 1510
1508 1509 1510 1493 1480 1479 1484 1496 1489 1488 1491 1495 1497 1507 1508 1507 1508 1510 1511 1513 1515 1516 1517 1518 1519 1519 1519 1520 1520 1520 1519 1519 1518 1518 1517 1516 1515 1514 1513 1512 1510 1509 1508 1507
1505 1506 1499 1484 1479 1480 1496 1496 1487 1487 1489 1491 1494 1498 1502 1504 1507 1509 1510 1512 1514 1515 1516 1517 1517 1518 1518 1518 1518 1518 1518 1517 1516 1516 1515 1514 1513 1512 1511 1510 1508 1507 1505 1504
1504 1507 1501 1479 1479 1483 1484 1481 1484 1486 1488 1490 1493 1497 1500 1503 1506 1508 1509 1511 1513 1514 1515 1516 1516 1517 1516 1517 1517 1516 1516 1515 1514 1513 1512 1511 1511 1509 1508 1507 1505 1504 1502 1501
1490 1491 1480 1477 1477 1477 1478 1480 1483 1485 1488 1490 1493 1497 1500 1503 1505 1507 1509 1510 1512 1513 1513 1514 1515 1515 1515 1515 1515 1514 1513 1512 1512 1511 1510 1509 1508 1507 1506 1504 1503 1501 1500 1498
1484 1481 1478 1477 1477 1478 1479 1481 1483 1485 1488 1490 1493 1496 1499 1502 1504 1506 1508 1509 1510 1511 1512 1512 1513 1513 1513 1513 1512 1511 1510 1510 1509 1508 1507 1506 1505 1504 1503 1501 1500 1498 1497 1495
1483 1480 1479 1479 1478 1479 1480 1482 1484 1486 1488 1490 1493 1496 1498 1501 1503 1505 1506 1508 1509 1510 1510 1511 1511 1511 1511 1510 1510 1509 1508 1507 1506 1505 1504 1503 1502 1501 1499 1498 1497 1495 1494 1492
1480 1476 1477 1478 1479 1480 1481 1483 1485 1486 1489 1491 1493 1495 1497 1499 1502 1503 1505 1506 1507 1508 1508 1508 1509 1508 1508 1508 1507 1506 1505 1504 1503 1502 1501 1499 1498 1497 1496 1495 1493 1492 1490 1488
1471 1472 1474 1476 1478 1479 1481 1483 1485 1486 1488 1490 1493 1494 1496 1498 1500 1502 1503 1504 1505 1505 1506 1506 1506 1506 1505 1505 1504 1503 1502 1501 1500 1498 1497 1496 1494 1492 1490 1489 1488 1487 1485 1484
1469 1471 1473 1475 1477 1479 1480 1482 1484 1486 1488 1489 1491 1493 1495 1496 1498 1499 1500 1501 1502 1503 1503 1503 1503 1503 1503 1502 1501 1500 1499 1498 1496 1495 1493 1492 1490 1488 1487 1484 1482 1480 1480 1479
1468 1469 1471 1473 1476 1478 1479 1481 1483 1485 1487 1488 1490 1491 1492 1494 1495 1497 1498 1499 1499 1499 1500 1500 1500 1499 1499 1498 1497 1496 1495 1494 1492 1491 1489 1488 1486 1484 1482 1480 1478 1476 1474 1473
1466 1468 1469 1471 1473 1475 1477 1479 1481 1483 1485 1486 1487 1489 1490 1491 1493 1494 1495 1495 1496 1496 1496 1496 1496 1496 1496 1495 1494 1492 1491 1490 1488 1487 1485 1483 1481 1479 1477 1475 1473 1471 1469 1468
1463 1465 1467 1469 1471 1473 1475 1477 1479 1481 1482 1484 1485 1486 1488 1489 1490 1490 1491 1492 1492 1492 1492 1492 1492 1492 1491 1490 1489 1488 1487 1485 1484 1482 1480 1478 1476 1474 1472 1470 1468 1466 1464 1463
1460 1462 1464 1466 1468 1471 1473 1475 1476 1478 1479 1481 1483 1484 1485 1486 1486 1487 1488 1488 1488 1488 1488 1488 1488 1487 1487 1486 1484 1483 1482 1480 1479 1477 1475 1473 1471 1469 1467 1465 1462 1460 1458 1457
1457 1460 1462 1464 1466 1468 1470 1472 1473 1475 1477 1478 1479 1480 1481 1482 1483 1484 1484 1484 1484 1484 1484 1484 1483 1483 1482 1481 1479 1478 1476 1475 1473 1471 1469 1467 1465 1463 1461 1459 1456 1454 1452 1450
1455 1457 1459 1461 1463 1465 1467 1469 1470 1472 1473 1475 1476 1477 1478 1479 1479 1480 1480 1480 1479 1479 1479 1479 1478 1477 1476 1475 1474 1472 1471 1469 1467 1465 1463 1461 1458 1456 1454 1452 1450 1448 1446 1444
1453 1455 1457 1459 1461 1462 1464 1466 1467 1469 1470 1471 1472 1473 1474 1475 1475 1475 1475 1475 1475 1475 1474 1473 1472 1471 1470 1469 1468 1466 1465 1462 1460 1458 1456 1454 1452 1449 1447 1445 1443 1441 1439 1437
1451 1453 1455 1457 1458 1460 1462 1463 1464 1466 1467 1468 1469 1469 1470 1470 1471 1471 1470 1470 1470 1469 1469 1468 1467 1466 1465 1463 1462 1460 1458 1456 1454 1451 1449 1447 1445 1442 1440 1438 1436 1434 1431 1429
1449 1451 1452 1454 1456 1457 1458 1460 1461 1462 1463 1464 1464 1465 1465 1466 1466 1466 1465 1465 1465 1464 1463 1462 1462 1460 1459 1457 1455 1453 1451 1449 1446 1444 1442 1439 1437 1435 1432 1430 1428 1426 1424 1422
1447 1449 1450 1452 1453 1454 1455 1456 1457 1458 1459 1460 1460 1461 1461 1461 1461 1460 1460 1460 1459 1458 1457 1456 1455 1454 1452 1451 1448 1446 1444 1441 1439 1436 1434 1431 1429 1426 1424 1422 1420 1418 1416 1414
1445 1447 1448 1449 1450 1451 1452 1453 1453 1454 1455 1455 1456 1456 1456 1456 1456 1455 1455 1455 1454 1453 1452 1450 1449 1448 1446 1444 1441 1439 1436 1434 1431 1428 1426 1423 1420 1418 1415 1413 1411 1409 1407 1405
1443 1444 1445 1446 1447 1448 1448 1449 1449 1450 1450 1451 1451 1451 1451 1451 1451 1451 1450 1449 1448 1447 1446 1444 1443 1441 1439 1437 1434 1431 1429 1426 1423 1420 1418 1415 1412 1409 1407 1404 1402 1400 1398 1396
1441 1442 1442 1443 1444 1445 1445 1446 1446 1446 1446 1446 1446 1446 1446 1446 1446 1445 1444 1443 1442 1441 1440 1438 1436 1434 1432 1430 1427 1424 1421 1418 1415 1412 1409 1406 1403 1401 1398 1396 1393 1391 1390 1388